Location: Geelbroek
(52.9503°N, 6.5712°E)
Time: 08:06:54
(UTC+00:00)

Cosmos 468 Rocket - Pass Details

Date: 15 May 2026
Orbit: 740 x 773 km, 74.0° (Epoch: 5 June)

Event Time Altitude Azimuth Distance (km) Brightness Sun altitude
Exits shadow 22:30:14 20° 204° (SSW) 1,704 5.4 -16.8°
Maximum altitude 22:33:54 90° 310° (NW) 777 4.0 -17.0°
Drops below altitude 10° 22:39:10 10° 26° (NNE) 2,314 7.2 -17.2°
Sets 22:41:33 0° 27° (NNE) 3,240 8.1 -17.2°
